Kinston, NC

12:12 PM EST on February 19, 2017 (GMT -0500)
Kinston Regional Jetport / Stallings Field

Weather History for KISO - March, 2013

Change the Weather History Date:

Monday, March 11, 2013

  Actual Average Record
Temperature  
Mean Temperature 55 °F -  
Max Temperature 69 °F 60 °F 84 °F (2006)
Min Temperature 41 °F 41 °F 25 °F (1981)
Degree Days  
Heating Degree Days 10    
Growing Degree Days 5 (Base 50)    
Moisture  
Dew Point 45 °F    
Average Humidity 79    
Maximum Humidity 97    
Minimum Humidity 43    
Precipitation  
Precipitation 0.00 in - - ()
Sea Level Pressure  
Sea Level Pressure 30.16 in    
Wind  
Wind Speed 3 mph (SSE)    
Max Wind Speed 16 mph    
Max Gust Speed 22 mph    
Visibility 9 miles    
Events      
Averages and records for this station are not official NWS values.
T = Trace of Precipitation, MM = Missing Value Source: NWS Daily Summary

Daily Weather History Graph

Daily Weather History Graph

Search for Another Location

Airport or City:

Trip Planner

Search our weather history database for the weather conditions in past years. The results will help you decide how hot, cold, wet, or windy it might be!

Date:

Astronomy

Mar. 11, 2013 Rise Set
Actual Time 7:26 AM EDT 7:14 PM EDT
Civil Twilight 7:01 AM EDT 7:40 PM EDT
Nautical Twilight 6:31 AM EDT 8:09 PM EDT
Astronomical Twilight 6:02 AM EDT 8:39 PM EDT
Moon 7:00 AM EDT (3/11) 7:22 PM EDT (3/11)
Length of Visible Light 12h 39m
Length of Day
11h 48m
Waning Crescent, 0% of the Moon is Illuminated
Mar 11
Waning Crescent
Mar 11
New
Mar 19
First Quarter
Mar 27
Full
Apr 3
Last Quarter

Hourly Weather History & Observations

Time (EDT) Temp. Windchill Dew Point Humidity Pressure Visibility Wind Dir Wind Speed Gust Speed Precip Events Conditions
12:15 AM 46.6 °F - 41.9 °F 84% 30.27 in 10.0 mi SE 3.5 mph - N/A   Clear
12:35 AM 45.0 °F - 41.0 °F 86% 30.28 in 10.0 mi Calm Calm - N/A   Clear
12:55 AM 44.2 °F - 40.5 °F 87% 30.27 in 10.0 mi Calm Calm - N/A   Clear
1:15 AM 41.9 °F - 39.4 °F 91% 30.26 in 10.0 mi Calm Calm - N/A   Clear
1:35 AM 42.3 °F - 39.9 °F 91% 30.27 in 10.0 mi Calm Calm - N/A   Clear
1:55 AM 41.2 °F - 39.4 °F 93% 30.27 in 10.0 mi Calm Calm - N/A   Clear
2:15 AM 41.0 °F - 39.2 °F 93% 30.26 in 10.0 mi Calm Calm - N/A   Clear
2:35 AM 43.7 °F - 42.3 °F 95% 30.25 in 7.0 mi Calm Calm - N/A   Clear
2:55 AM 42.6 °F - 40.8 °F 93% 30.25 in 7.0 mi Calm Calm - N/A   Clear
3:15 AM 44.8 °F 43.3 °F 43.5 °F 95% 30.24 in 7.0 mi East 3.5 mph - N/A   Clear
3:35 AM 43.3 °F - 41.9 °F 95% 30.23 in 7.0 mi Calm Calm - N/A   Clear
3:55 AM 42.8 °F - 41.4 °F 95% 30.22 in 7.0 mi Calm Calm - N/A   Clear
4:15 AM 41.9 °F - 40.6 °F 95% 30.22 in 7.0 mi Calm Calm - N/A   Clear
4:35 AM 43.5 °F - 42.6 °F 97% 30.21 in 7.0 mi Calm Calm - N/A   Clear
4:55 AM 44.1 °F - 43.2 °F 97% 30.20 in 7.0 mi Calm Calm - N/A   Clear
5:15 AM 44.1 °F - 43.0 °F 96% 30.20 in 7.0 mi Calm Calm - N/A   Clear
5:35 AM 43.7 °F - 42.8 °F 97% 30.20 in 7.0 mi Calm Calm - N/A   Clear
5:55 AM 44.1 °F - 43.0 °F 96% 30.20 in 7.0 mi Calm Calm - N/A   Clear
6:15 AM 43.9 °F - 42.8 °F 96% 30.20 in 7.0 mi Calm Calm - N/A   Clear
6:35 AM 42.1 °F - 41.0 °F 96% 30.20 in 7.0 mi Calm Calm - N/A   Clear
6:55 AM 42.3 °F - 41.2 °F 96% 30.20 in 7.0 mi Calm Calm - N/A   Clear
6:56 AM 42.8 °F - 41.0 °F 93% 30.20 in 7.0 mi Calm Calm - N/A   Clear
7:56 AM 42.8 °F - 41.0 °F 93% 30.21 in 7.0 mi Calm Calm - N/A   Scattered Clouds
8:56 AM 48.2 °F - 46.4 °F 93% 30.20 in 7.0 mi ESE 6.9 mph - N/A   Clear
9:56 AM 57.2 °F - 50.0 °F 77% 30.20 in 10.0 mi SE 8.1 mph - N/A   Clear
10:56 AM 64.4 °F - 50.0 °F 59% 30.18 in 10.0 mi SE 9.2 mph - N/A   Clear
11:56 AM 66.2 °F - 50.0 °F 56% 30.15 in 10.0 mi SSE 10.4 mph - N/A   Clear
12:56 PM 68.0 °F - 50.0 °F 52% 30.14 in 10.0 mi South 11.5 mph - N/A   Mostly Cloudy
1:56 PM 68.0 °F - 48.2 °F 49% 30.12 in 10.0 mi South 12.7 mph 17.3 mph N/A   Scattered Clouds
2:56 PM 69.8 °F - 48.2 °F 46% 30.10 in 10.0 mi South 13.8 mph - N/A   Scattered Clouds
3:56 PM 69.8 °F - 46.4 °F 43% 30.07 in 10.0 mi SSE 11.5 mph 20.7 mph N/A   Clear
4:56 PM 69.8 °F - 46.4 °F 43% 30.04 in 10.0 mi SSE 16.1 mph 19.6 mph N/A   Clear
5:56 PM 66.2 °F - 48.2 °F 52% 30.04 in 10.0 mi SSE 13.8 mph 21.9 mph N/A   Clear
6:56 PM 64.4 °F - 48.2 °F 56% 30.05 in 10.0 mi South 12.7 mph - N/A   Scattered Clouds
8:56 PM 62.6 °F - 50.0 °F 63% 30.03 in 10.0 mi SSE 10.4 mph - N/A   Mostly Cloudy
9:15 PM 62.6 °F - 50.2 °F 64% 30.03 in 10.0 mi SSE 12.7 mph 17.3 mph N/A   Mostly Cloudy
9:35 PM 62.4 °F - 50.4 °F 65% 30.03 in 10.0 mi SE 11.5 mph - N/A   Mostly Cloudy
9:55 PM 61.9 °F - 50.9 °F 67% 30.02 in 10.0 mi SE 9.2 mph 17.3 mph N/A   Scattered Clouds
10:15 PM 61.7 °F - 51.8 °F 70% 30.01 in 10.0 mi SSE 9.2 mph - N/A   Clear
10:35 PM 61.7 °F - 52.2 °F 71% 29.99 in 10.0 mi SE 8.1 mph 18.4 mph N/A   Scattered Clouds
10:55 PM 61.7 °F - 52.7 °F 72% 30.01 in 10.0 mi SSE 9.2 mph - N/A   Mostly Cloudy
11:15 PM 61.3 °F - 53.1 °F 74% 30.00 in 10.0 mi SE 9.2 mph 16.1 mph N/A   Scattered Clouds
11:35 PM 61.2 °F - 53.6 °F 76% 30.00 in 10.0 mi SSE 6.9 mph - N/A   Clear